Погода в Октябрьском

Россия / Ульяновская область     52°44′49″N   47°08′00″E
В апреле 2022 года жителям России запретили посещать сайт meteo.paraplan.net по решению Генеральной прокуратуры. Аудитория сайта уменьшилась в 10 раз. Владельцы сайта не видят смысла в поддержке погодного сервера в таких условиях. Сайт будет закрыт в октябре.
темп.,
°C
ветер,
м/с
пор.,
м/с
влажн.,
%
обл.,
%
осадки,
мм/ч
давл.,
гПа
погр.,
м
25 сентября, вс
вс2501:00+9ююз2369100 0.0 101140
04:00+8ююв1175100 0.0 101011
07:00+8в1176100 0.0 100912
10:00+12ю236498 0.0 1008476
13:00+10з457984 0.1 1007311
16:00+13зюз455786 0.1 10061241
19:00+10юз387393 0.2 1006209
22:00+9зюз587994 0.3 1006553
26 сентября, пн
пн2601:00+8зюз4878100 0.1 1006762
04:00+7юз6887100 0.4 10071118
07:00+7зюз5889100 2.9 10071128
10:00+7з5989100 3.3 1008728
13:00+8з6107786 0.4 10101078
16:00+10з6971100 0.8 10111166
19:00+8з51082100 0.3 1013615
22:00+7з5108844 0.3 1014419
27 сентября, вт
вт2701:00+6зсз410915 0.0 1015297
04:00+5зюз259252 0.0 1016106
07:00+4з229178 0.0 101727
10:00+10ююз226489 0.0 1017384
13:00+11ю3456100 0.0 1017529
16:00+9ююв3675100 0.3 1017351
19:00+8вюв3992100 1.5 1017320
22:00+8юв41096100 2.3 1016325
28 сентября, ср
ср2801:00+9вюв3993100 0.2 1015306
04:00+9в2491100 0.2 1014124
07:00+9юв2289100 0.0 101445
10:00+10в2895100 0.6 1014263
13:00+12вюв5880100 0.4 1013429
16:00+13вюв4973100 0.4 1012391
19:00+11в61379100 0.0 1012281
22:00+11в51178100 0.0 1011261
29 сентября, чт
чт2901:00+10в4981100 0.0 1010209
04:00+11в4879100 0.0 1010198
07:00+11в3680100 0.3 1010153
10:00+13в3469100 0.4 1010224
13:00+15в2262100 0.2 1011429
16:00+17св226268 0.6 1012471
19:00+12ссв348913 0.4 101458
22:00+10св3793100 0.4 1016133